Location: Bord�res
(43.2000°N, 0.2167°W)
Time: 11:09:30
(UTC+00:00)

H-2A R/B - Pass Details

Date: 03 March 2021
Orbit: 578 x 654 km, 98.5° (Epoch: 21 April)

Event Time Altitude Azimuth Distance (km) Brightness Sun altitude
Rises 18:32:06 0° 2° (N) 2,805 5.4 -8.0°
Reaches altitude 10° 18:34:29 10° 350° (N) 1,900 4.7 -8.4°
Maximum altitude 18:37:56 27° 293° (WNW) 1,137 4.3 -9.1°
Drops below altitude 10° 18:41:23 10° 235° (SW) 1,897 5.5 -9.7°
Sets 18:43:47 0° 223° (SW) 2,799 6.1 -10.1°
